Hourly Data Report for October 20, 2016

All times are specified in Local Standard Time (LST). Add 1 hour to adjust for Daylight Saving Time where and when it is observed.

CHARLOTTETOWN A
PRINCE EDWARD ISLAND

46°17'21.000" N
63°07'09.000" W
48.50 m
8300301
71706
YYG

Download Data

Hourly Data (October 2016)
Hourly Data Report for October 20, 2016
Temp Definition
°C
Dew Point Temp Definition
°C
Rel Hum Definition
%
Wind Dir Definition
10's deg

Wind Spd Definition
km/h
Visibility Definition
km
Stn Press Definition
kPa
Hmdx Definition


Wind Chill Definition


Weather Definition


TIME
00:00 Legend Double Dagger 10.3 2.4 58 29 18 24.1 101.08     LegendNANA
01:00 Legend Double Dagger 9.2 2.6 63 29 11 24.1 101.16     LegendNANA
02:00 Legend Double Dagger 7.8 2.7 70 28 10 24.1 101.24     Clear
03:00 Legend Double Dagger 7.9 2.8 70 29 12 24.1 101.32     LegendNANA
04:00 Legend Double Dagger 7.0 2.5 73 27 10 24.1 101.44     LegendNANA
05:00 Legend Double Dagger 6.7 3.0 77 28 14 24.1 101.53     Clear
06:00 Legend Double Dagger 7.2 3.1 75 28 13 24.1 101.60     LegendNANA
07:00 Legend Double Dagger 7.4 3.3 75 29 10 24.1 101.68     LegendNANA
08:00 Legend Double Dagger 8.8 4.1 72 30 17 24.1 101.76     Mainly Clear
09:00 Legend Double Dagger 10.4 4.6 67 30 18 24.1 101.84     LegendNANA
10:00 Legend Double Dagger 11.2 4.9 65 31 21 24.1 101.95     LegendNANA
11:00 Legend Double Dagger 11.5 4.5 62 33 17 24.1 101.94     Mostly Cloudy
12:00 Legend Double Dagger 11.1 3.9 61 32 12 24.1 102.00     LegendNANA
13:00 Legend Double Dagger 11.6 4.8 63 2 17 24.1 101.99     LegendNANA
14:00 Legend Double Dagger 11.4 4.2 61 1 8 24.1 102.04     Mostly Cloudy
15:00 Legend Double Dagger 11.2 4.5 63 2 9 24.1 102.08     LegendNANA
16:00 Legend Double Dagger 10.2 5.2 71 6 10 24.1 102.10     LegendNANA
17:00 Legend Double Dagger 9.6 5.6 76 7 7 24.1 102.17     Mostly Cloudy
18:00 Legend Double Dagger 8.9 5.5 79 4 9 24.1 102.28     LegendNANA
19:00 Legend Double Dagger 8.7 5.1 78 9 8 24.1 102.30     LegendNANA
20:00 Legend Double Dagger 8.7 4.9 77 11 12 24.1 102.23     Cloudy
21:00 Legend Double Dagger 8.4 4.8 78 11 12 24.1 102.26     LegendNANA
22:00 Legend Double Dagger 8.1 5.2 82 8 7 24.1 102.28     LegendNANA
23:00 Legend Double Dagger 8.4 5.7 83 9 15 24.1 102.22     Cloudy

Notes on Data Quality.

Legend

  • E = Estimated
  • M = Missing
  • NA = Not Available
  • ‡ = Partner data that is not subject to review by the National Climate Archives
Date modified: